owner,sensor,date,latitude,longitude,air_pressure(mBar),qcFlag 
TCOON,ioos:station:TCOON:057:1,2019-11-01T00:12:00Z,28.4460,-96.3961,1028.3,11111222 
TCOON,ioos:station:TCOON:057:1,2019-11-01T01:12:00Z,28.4460,-96.3961,1029.0,11111222 
TCOON,ioos:station:TCOON:057:1,2019-11-01T02:12:00Z,28.4460,-96.3961,1029.4,11111222 
TCOON,ioos:station:TCOON:057:1,2019-11-01T03:12:00Z,28.4460,-96.3961,1029.5,11111222 
TCOON,ioos:station:TCOON:057:1,2019-11-01T04:12:00Z,28.4460,-96.3961,1029.5,11111222 
TCOON,ioos:station:TCOON:057:1,2019-11-01T05:12:00Z,28.4460,-96.3961,1029.3,11111222 
TCOON,ioos:station:TCOON:057:1,2019-11-01T06:12:00Z,28.4460,-96.3961,1028.9,11111222 
TCOON,ioos:station:TCOON:057:1,2019-11-01T07:12:00Z,28.4460,-96.3961,1028.8,11111222 
TCOON,ioos:station:TCOON:057:1,2019-11-01T08:12:00Z,28.4460,-96.3961,1028.6,11111222 
TCOON,ioos:station:TCOON:057:1,2019-11-01T09:12:00Z,28.4460,-96.3961,1028.5,11111222 
TCOON,ioos:station:TCOON:057:1,2019-11-01T10:12:00Z,28.4460,-96.3961,1028.2,11111222 
TCOON,ioos:station:TCOON:057:1,2019-11-01T11:12:00Z,28.4460,-96.3961,1028.4,11111222 
TCOON,ioos:station:TCOON:057:1,2019-11-01T12:12:00Z,28.4460,-96.3961,1028.5,11111222 
TCOON,ioos:station:TCOON:057:1,2019-11-01T13:12:00Z,28.4460,-96.3961,1028.6,11111222 
TCOON,ioos:station:TCOON:057:1,2019-11-01T14:12:00Z,28.4460,-96.3961,1028.9,11111222 
TCOON,ioos:station:TCOON:057:1,2019-11-01T15:12:00Z,28.4460,-96.3961,1028.8,11111222 
TCOON,ioos:station:TCOON:057:1,2019-11-01T16:12:00Z,28.4460,-96.3961,1028.7,11111222 
TCOON,ioos:station:TCOON:057:1,2019-11-01T17:12:00Z,28.4460,-96.3961,1027.8,11111222 
TCOON,ioos:station:TCOON:057:1,2019-11-01T18:12:00Z,28.4460,-96.3961,1026.6,11111222 
TCOON,ioos:station:TCOON:057:1,2019-11-01T19:12:00Z,28.4460,-96.3961,1025.2,11111222 
TCOON,ioos:station:TCOON:057:1,2019-11-01T20:12:00Z,28.4460,-96.3961,1024.2,11111222 
TCOON,ioos:station:TCOON:057:1,2019-11-01T21:12:00Z,28.4460,-96.3961,1023.4,11111222 
TCOON,ioos:station:TCOON:057:1,2019-11-01T22:12:00Z,28.4460,-96.3961,1023.0,11111222 
TCOON,ioos:station:TCOON:057:1,2019-11-01T23:12:00Z,28.4460,-96.3961,1023.3,11111222 
TCOON,ioos:station:TCOON:057:1,2019-11-02T00:12:00Z,28.4460,-96.3961,1023.5,11111222 
TCOON,ioos:station:TCOON:057:1,2019-11-02T01:12:00Z,28.4460,-96.3961,1023.8,11111222 
TCOON,ioos:station:TCOON:057:1,2019-11-02T02:12:00Z,28.4460,-96.3961,1023.9,11111222 
TCOON,ioos:station:TCOON:057:1,2019-11-02T03:12:00Z,28.4460,-96.3961,1024.1,11111222 
TCOON,ioos:station:TCOON:057:1,2019-11-02T04:12:00Z,28.4460,-96.3961,1024.3,11111222 
TCOON,ioos:station:TCOON:057:1,2019-11-02T05:12:00Z,28.4460,-96.3961,1024.1,11111222 
TCOON,ioos:station:TCOON:057:1,2019-11-02T06:12:00Z,28.4460,-96.3961,1024.2,11111222 
TCOON,ioos:station:TCOON:057:1,2019-11-02T07:12:00Z,28.4460,-96.3961,1024.5,11111222 
TCOON,ioos:station:TCOON:057:1,2019-11-02T08:12:00Z,28.4460,-96.3961,1024.6,11111222 
TCOON,ioos:station:TCOON:057:1,2019-11-02T09:12:00Z,28.4460,-96.3961,1024.9,11111222 
TCOON,ioos:station:TCOON:057:1,2019-11-02T10:12:00Z,28.4460,-96.3961,1025.3,11111222 
TCOON,ioos:station:TCOON:057:1,2019-11-02T11:12:00Z,28.4460,-96.3961,1025.9,11111222 
TCOON,ioos:station:TCOON:057:1,2019-11-02T12:12:00Z,28.4460,-96.3961,1026.5,11111222 
TCOON,ioos:station:TCOON:057:1,2019-11-02T13:12:00Z,28.4460,-96.3961,1027.1,11111222 
TCOON,ioos:station:TCOON:057:1,2019-11-02T14:12:00Z,28.4460,-96.3961,1028.0,11111222 
TCOON,ioos:station:TCOON:057:1,2019-11-02T15:12:00Z,28.4460,-96.3961,1028.6,11111222 
TCOON,ioos:station:TCOON:057:1,2019-11-02T16:12:00Z,28.4460,-96.3961,1028.8,11111222 
TCOON,ioos:station:TCOON:057:1,2019-11-02T17:12:00Z,28.4460,-96.3961,1028.4,11111222 
TCOON,ioos:station:TCOON:057:1,2019-11-02T18:12:00Z,28.4460,-96.3961,1027.8,11111222 
TCOON,ioos:station:TCOON:057:1,2019-11-02T19:12:00Z,28.4460,-96.3961,1026.9,11111222 
TCOON,ioos:station:TCOON:057:1,2019-11-02T20:12:00Z,28.4460,-96.3961,1026.0,11111222 
TCOON,ioos:station:TCOON:057:1,2019-11-02T21:12:00Z,28.4460,-96.3961,1025.6,11111222 
TCOON,ioos:station:TCOON:057:1,2019-11-02T22:12:00Z,28.4460,-96.3961,1025.4,11111222 
TCOON,ioos:station:TCOON:057:1,2019-11-02T23:12:00Z,28.4460,-96.3961,1025.3,11111222 
TCOON,ioos:station:TCOON:057:1,2019-11-03T00:12:00Z,28.4460,-96.3961,1025.6,11111222 
TCOON,ioos:station:TCOON:057:1,2019-11-03T01:12:00Z,28.4460,-96.3961,1025.6,11111222 
TCOON,ioos:station:TCOON:057:1,2019-11-03T02:12:00Z,28.4460,-96.3961,1025.5,11111222 
TCOON,ioos:station:TCOON:057:1,2019-11-03T03:12:00Z,28.4460,-96.3961,1025.6,11111222 
TCOON,ioos:station:TCOON:057:1,2019-11-03T04:12:00Z,28.4460,-96.3961,1025.6,11111222 
TCOON,ioos:station:TCOON:057:1,2019-11-03T05:12:00Z,28.4460,-96.3961,1025.4,11111222 
TCOON,ioos:station:TCOON:057:1,2019-11-03T06:12:00Z,28.4460,-96.3961,1025.1,11111222 
TCOON,ioos:station:TCOON:057:1,2019-11-03T07:12:00Z,28.4460,-96.3961,1024.7,11111222 
TCOON,ioos:station:TCOON:057:1,2019-11-03T08:12:00Z,28.4460,-96.3961,1024.5,11111222 
TCOON,ioos:station:TCOON:057:1,2019-11-03T09:12:00Z,28.4460,-96.3961,1024.3,11111222 
TCOON,ioos:station:TCOON:057:1,2019-11-03T10:12:00Z,28.4460,-96.3961,1024.0,11111222 
TCOON,ioos:station:TCOON:057:1,2019-11-03T11:12:00Z,28.4460,-96.3961,1023.8,11111222 
TCOON,ioos:station:TCOON:057:1,2019-11-03T12:12:00Z,28.4460,-96.3961,1023.9,11111222 
TCOON,ioos:station:TCOON:057:1,2019-11-03T13:12:00Z,28.4460,-96.3961,1024.1,11111222 
TCOON,ioos:station:TCOON:057:1,2019-11-03T14:12:00Z,28.4460,-96.3961,1024.1,11111222 
TCOON,ioos:station:TCOON:057:1,2019-11-03T15:12:00Z,28.4460,-96.3961,1024.2,11111222 
TCOON,ioos:station:TCOON:057:1,2019-11-03T16:12:00Z,28.4460,-96.3961,1023.7,11111222 
TCOON,ioos:station:TCOON:057:1,2019-11-03T17:12:00Z,28.4460,-96.3961,1023.1,11111222 
TCOON,ioos:station:TCOON:057:1,2019-11-03T18:12:00Z,28.4460,-96.3961,1022.1,11111222 
TCOON,ioos:station:TCOON:057:1,2019-11-03T19:12:00Z,28.4460,-96.3961,1020.7,11111222 
TCOON,ioos:station:TCOON:057:1,2019-11-03T20:12:00Z,28.4460,-96.3961,1019.8,11111222 
TCOON,ioos:station:TCOON:057:1,2019-11-03T21:12:00Z,28.4460,-96.3961,1019.3,11111222 
TCOON,ioos:station:TCOON:057:1,2019-11-03T22:12:00Z,28.4460,-96.3961,1018.8,11111222 
TCOON,ioos:station:TCOON:057:1,2019-11-03T23:12:00Z,28.4460,-96.3961,1018.4,11111222 
TCOON,ioos:station:TCOON:057:1,2019-11-04T00:12:00Z,28.4460,-96.3961,1018.5,11111222 
TCOON,ioos:station:TCOON:057:1,2019-11-04T01:12:00Z,28.4460,-96.3961,1018.4,11111222 
TCOON,ioos:station:TCOON:057:1,2019-11-04T02:12:00Z,28.4460,-96.3961,1018.3,11111222 
TCOON,ioos:station:TCOON:057:1,2019-11-04T03:12:00Z,28.4460,-96.3961,1018.1,11111222 
TCOON,ioos:station:TCOON:057:1,2019-11-04T04:12:00Z,28.4460,-96.3961,1017.8,11111222 
TCOON,ioos:station:TCOON:057:1,2019-11-04T05:12:00Z,28.4460,-96.3961,1017.4,11111222 
TCOON,ioos:station:TCOON:057:1,2019-11-04T15:48:00Z,28.4460,-96.3961,1017.9,11111222 
TCOON,ioos:station:TCOON:057:1,2019-11-04T16:12:00Z,28.4460,-96.3961,1017.8,11111222 
TCOON,ioos:station:TCOON:057:1,2019-11-04T17:12:00Z,28.4460,-96.3961,1017.2,11111222 
TCOON,ioos:station:TCOON:057:1,2019-11-04T18:12:00Z,28.4460,-96.3961,1016.4,11111222 
TCOON,ioos:station:TCOON:057:1,2019-11-04T19:12:00Z,28.4460,-96.3961,1015.2,11111222 
TCOON,ioos:station:TCOON:057:1,2019-11-04T20:12:00Z,28.4460,-96.3961,1014.4,11111222 
TCOON,ioos:station:TCOON:057:1,2019-11-04T21:12:00Z,28.4460,-96.3961,1014.4,11111222 
TCOON,ioos:station:TCOON:057:1,2019-11-04T22:12:00Z,28.4460,-96.3961,1014.8,11111222 
TCOON,ioos:station:TCOON:057:1,2019-11-04T23:12:00Z,28.4460,-96.3961,1014.8,11111222 
TCOON,ioos:station:TCOON:057:1,2019-11-05T00:12:00Z,28.4460,-96.3961,1014.5,11111222 
TCOON,ioos:station:TCOON:057:1,2019-11-05T01:12:00Z,28.4460,-96.3961,1014.9,11111222 
TCOON,ioos:station:TCOON:057:1,2019-11-05T02:12:00Z,28.4460,-96.3961,1015.3,11111222 
TCOON,ioos:station:TCOON:057:1,2019-11-05T03:12:00Z,28.4460,-96.3961,1015.7,11111222 
TCOON,ioos:station:TCOON:057:1,2019-11-05T04:12:00Z,28.4460,-96.3961,1015.7,11111222 
TCOON,ioos:station:TCOON:057:1,2019-11-05T05:12:00Z,28.4460,-96.3961,1015.6,11111222 
TCOON,ioos:station:TCOON:057:1,2019-11-05T06:12:00Z,28.4460,-96.3961,1015.8,11111222 
TCOON,ioos:station:TCOON:057:1,2019-11-05T07:12:00Z,28.4460,-96.3961,1016.2,11111222 
TCOON,ioos:station:TCOON:057:1,2019-11-05T08:12:00Z,28.4460,-96.3961,1016.3,11111222 
TCOON,ioos:station:TCOON:057:1,2019-11-05T09:12:00Z,28.4460,-96.3961,1016.4,11111222 
TCOON,ioos:station:TCOON:057:1,2019-11-05T10:12:00Z,28.4460,-96.3961,1016.8,11111222 
TCOON,ioos:station:TCOON:057:1,2019-11-05T11:12:00Z,28.4460,-96.3961,1017.2,11111222 
TCOON,ioos:station:TCOON:057:1,2019-11-05T12:12:00Z,28.4460,-96.3961,1017.9,11111222 
TCOON,ioos:station:TCOON:057:1,2019-11-05T13:12:00Z,28.4460,-96.3961,1018.9,11111222 
TCOON,ioos:station:TCOON:057:1,2019-11-05T14:12:00Z,28.4460,-96.3961,1019.5,11111222 
TCOON,ioos:station:TCOON:057:1,2019-11-05T15:12:00Z,28.4460,-96.3961,1020.0,11111222 
TCOON,ioos:station:TCOON:057:1,2019-11-05T16:12:00Z,28.4460,-96.3961,1020.3,11111222 
TCOON,ioos:station:TCOON:057:1,2019-11-05T17:12:00Z,28.4460,-96.3961,1020.1,11111222 
TCOON,ioos:station:TCOON:057:1,2019-11-05T18:12:00Z,28.4460,-96.3961,1019.6,11111222 
TCOON,ioos:station:TCOON:057:1,2019-11-05T19:12:00Z,28.4460,-96.3961,1019.0,11111222 
TCOON,ioos:station:TCOON:057:1,2019-11-05T20:12:00Z,28.4460,-96.3961,1018.8,11111222 
TCOON,ioos:station:TCOON:057:1,2019-11-05T21:12:00Z,28.4460,-96.3961,1018.8,11111222 
TCOON,ioos:station:TCOON:057:1,2019-11-05T22:12:00Z,28.4460,-96.3961,1019.2,11111222 
TCOON,ioos:station:TCOON:057:1,2019-11-05T23:12:00Z,28.4460,-96.3961,1019.3,11111222 
TCOON,ioos:station:TCOON:057:1,2019-11-06T00:12:00Z,28.4460,-96.3961,1019.7,11111222 
TCOON,ioos:station:TCOON:057:1,2019-11-06T01:12:00Z,28.4460,-96.3961,1020.3,11111222 
TCOON,ioos:station:TCOON:057:1,2019-11-06T02:12:00Z,28.4460,-96.3961,1020.7,11111222 
TCOON,ioos:station:TCOON:057:1,2019-11-06T03:12:00Z,28.4460,-96.3961,1020.9,11111222 
TCOON,ioos:station:TCOON:057:1,2019-11-06T04:12:00Z,28.4460,-96.3961,1021.4,11111222 
TCOON,ioos:station:TCOON:057:1,2019-11-06T05:12:00Z,28.4460,-96.3961,1021.6,11111222 
TCOON,ioos:station:TCOON:057:1,2019-11-06T06:12:00Z,28.4460,-96.3961,1021.2,11111222 
TCOON,ioos:station:TCOON:057:1,2019-11-06T07:12:00Z,28.4460,-96.3961,1021.1,11111222 
TCOON,ioos:station:TCOON:057:1,2019-11-06T08:12:00Z,28.4460,-96.3961,1020.8,11111222 
TCOON,ioos:station:TCOON:057:1,2019-11-06T09:12:00Z,28.4460,-96.3961,1020.6,11111222 
TCOON,ioos:station:TCOON:057:1,2019-11-06T10:18:00Z,28.4460,-96.3961,1020.8,11111222 
TCOON,ioos:station:TCOON:057:1,2019-11-06T11:12:00Z,28.4460,-96.3961,1021.1,11111222 
TCOON,ioos:station:TCOON:057:1,2019-11-06T12:12:00Z,28.4460,-96.3961,1021.5,11111222 
TCOON,ioos:station:TCOON:057:1,2019-11-06T13:18:00Z,28.4460,-96.3961,1021.7,11111222 
TCOON,ioos:station:TCOON:057:1,2019-11-06T14:12:00Z,28.4460,-96.3961,1022.4,11111222 
TCOON,ioos:station:TCOON:057:1,2019-11-06T15:12:00Z,28.4460,-96.3961,1022.9,11111222 
TCOON,ioos:station:TCOON:057:1,2019-11-06T16:12:00Z,28.4460,-96.3961,1023.1,11111222 
TCOON,ioos:station:TCOON:057:1,2019-11-06T17:12:00Z,28.4460,-96.3961,1022.4,11111222 
TCOON,ioos:station:TCOON:057:1,2019-11-06T18:12:00Z,28.4460,-96.3961,1021.3,11111222 
TCOON,ioos:station:TCOON:057:1,2019-11-06T19:12:00Z,28.4460,-96.3961,1020.2,11111222 
TCOON,ioos:station:TCOON:057:1,2019-11-06T20:12:00Z,28.4460,-96.3961,1019.6,11111222 
TCOON,ioos:station:TCOON:057:1,2019-11-06T21:12:00Z,28.4460,-96.3961,1019.1,11111222 
TCOON,ioos:station:TCOON:057:1,2019-11-06T22:12:00Z,28.4460,-96.3961,1019.1,11111222 
TCOON,ioos:station:TCOON:057:1,2019-11-06T23:12:00Z,28.4460,-96.3961,1019.1,11111222 
TCOON,ioos:station:TCOON:057:1,2019-11-07T00:12:00Z,28.4460,-96.3961,1019.1,11111222 
TCOON,ioos:station:TCOON:057:1,2019-11-07T01:12:00Z,28.4460,-96.3961,1019.2,11111222 
TCOON,ioos:station:TCOON:057:1,2019-11-07T02:12:00Z,28.4460,-96.3961,1019.4,11111222 
TCOON,ioos:station:TCOON:057:1,2019-11-07T03:12:00Z,28.4460,-96.3961,1019.1,11111222 
TCOON,ioos:station:TCOON:057:1,2019-11-07T04:12:00Z,28.4460,-96.3961,1018.6,11111222 
TCOON,ioos:station:TCOON:057:1,2019-11-07T05:12:00Z,28.4460,-96.3961,1018.6,11111222 
TCOON,ioos:station:TCOON:057:1,2019-11-07T06:12:00Z,28.4460,-96.3961,1018.0,11111222 
TCOON,ioos:station:TCOON:057:1,2019-11-07T07:18:00Z,28.4460,-96.3961,1017.7,11111222 
TCOON,ioos:station:TCOON:057:1,2019-11-07T08:12:00Z,28.4460,-96.3961,1017.2,11111222 
TCOON,ioos:station:TCOON:057:1,2019-11-07T09:12:00Z,28.4460,-96.3961,1016.9,11111222 
TCOON,ioos:station:TCOON:057:1,2019-11-07T10:12:00Z,28.4460,-96.3961,1016.9,11111222 
TCOON,ioos:station:TCOON:057:1,2019-11-07T11:12:00Z,28.4460,-96.3961,1017.3,11111222 
TCOON,ioos:station:TCOON:057:1,2019-11-07T12:12:00Z,28.4460,-96.3961,1017.4,11111222 
TCOON,ioos:station:TCOON:057:1,2019-11-07T13:12:00Z,28.4460,-96.3961,1018.0,11111222 
TCOON,ioos:station:TCOON:057:1,2019-11-07T14:12:00Z,28.4460,-96.3961,1018.8,11111222 
TCOON,ioos:station:TCOON:057:1,2019-11-07T15:12:00Z,28.4460,-96.3961,1019.0,11111222 
TCOON,ioos:station:TCOON:057:1,2019-11-07T16:12:00Z,28.4460,-96.3961,1019.4,11111222 
TCOON,ioos:station:TCOON:057:1,2019-11-07T17:12:00Z,28.4460,-96.3961,1018.8,11111222 
TCOON,ioos:station:TCOON:057:1,2019-11-07T18:12:00Z,28.4460,-96.3961,1017.8,11111222 
TCOON,ioos:station:TCOON:057:1,2019-11-07T19:12:00Z,28.4460,-96.3961,1016.8,11111222 
TCOON,ioos:station:TCOON:057:1,2019-11-07T20:12:00Z,28.4460,-96.3961,1015.7,11111222 
TCOON,ioos:station:TCOON:057:1,2019-11-07T21:12:00Z,28.4460,-96.3961,1016.3,11111222 
TCOON,ioos:station:TCOON:057:1,2019-11-07T22:12:00Z,28.4460,-96.3961,1017.5,11111222 
TCOON,ioos:station:TCOON:057:1,2019-11-07T23:12:00Z,28.4460,-96.3961,1019.2,11111222 
TCOON,ioos:station:TCOON:057:1,2019-11-08T00:12:00Z,28.4460,-96.3961,1020.4,11111222 
TCOON,ioos:station:TCOON:057:1,2019-11-08T01:12:00Z,28.4460,-96.3961,1021.4,11111222 
TCOON,ioos:station:TCOON:057:1,2019-11-08T02:12:00Z,28.4460,-96.3961,1022.0,11111222 
TCOON,ioos:station:TCOON:057:1,2019-11-08T03:12:00Z,28.4460,-96.3961,1023.0,11111222 
TCOON,ioos:station:TCOON:057:1,2019-11-08T04:12:00Z,28.4460,-96.3961,1023.3,11111222 
TCOON,ioos:station:TCOON:057:1,2019-11-08T05:12:00Z,28.4460,-96.3961,1023.4,11111222 
TCOON,ioos:station:TCOON:057:1,2019-11-08T06:12:00Z,28.4460,-96.3961,1023.2,11111222 
TCOON,ioos:station:TCOON:057:1,2019-11-08T07:12:00Z,28.4460,-96.3961,1023.4,11111222 
TCOON,ioos:station:TCOON:057:1,2019-11-08T08:12:00Z,28.4460,-96.3961,1023.6,11111222 
TCOON,ioos:station:TCOON:057:1,2019-11-08T09:12:00Z,28.4460,-96.3961,1023.6,11111222 
TCOON,ioos:station:TCOON:057:1,2019-11-08T10:12:00Z,28.4460,-96.3961,1023.7,11111222 
TCOON,ioos:station:TCOON:057:1,2019-11-08T11:12:00Z,28.4460,-96.3961,1024.0,11111222 
TCOON,ioos:station:TCOON:057:1,2019-11-08T12:12:00Z,28.4460,-96.3961,1024.4,11111222 
TCOON,ioos:station:TCOON:057:1,2019-11-08T13:12:00Z,28.4460,-96.3961,1024.9,11111222 
TCOON,ioos:station:TCOON:057:1,2019-11-08T14:12:00Z,28.4460,-96.3961,1025.4,11111222 
TCOON,ioos:station:TCOON:057:1,2019-11-08T15:12:00Z,28.4460,-96.3961,1025.6,11111222 
TCOON,ioos:station:TCOON:057:1,2019-11-08T16:12:00Z,28.4460,-96.3961,1025.5,11111222 
TCOON,ioos:station:TCOON:057:1,2019-11-08T17:12:00Z,28.4460,-96.3961,1026.0,11111222 
TCOON,ioos:station:TCOON:057:1,2019-11-08T18:12:00Z,28.4460,-96.3961,1025.3,11111222 
TCOON,ioos:station:TCOON:057:1,2019-11-08T19:12:00Z,28.4460,-96.3961,1024.4,11111222 
TCOON,ioos:station:TCOON:057:1,2019-11-08T20:12:00Z,28.4460,-96.3961,1024.0,11111222 
TCOON,ioos:station:TCOON:057:1,2019-11-08T21:12:00Z,28.4460,-96.3961,1024.0,11111222 
TCOON,ioos:station:TCOON:057:1,2019-11-08T22:12:00Z,28.4460,-96.3961,1024.3,11111222 
TCOON,ioos:station:TCOON:057:1,2019-11-08T23:12:00Z,28.4460,-96.3961,1024.5,11111222 
TCOON,ioos:station:TCOON:057:1,2019-11-09T00:12:00Z,28.4460,-96.3961,1025.0,11111222 
TCOON,ioos:station:TCOON:057:1,2019-11-09T01:12:00Z,28.4460,-96.3961,1025.8,11111222 
TCOON,ioos:station:TCOON:057:1,2019-11-09T02:12:00Z,28.4460,-96.3961,1026.1,11111222 
TCOON,ioos:station:TCOON:057:1,2019-11-09T03:12:00Z,28.4460,-96.3961,1026.2,11111222 
TCOON,ioos:station:TCOON:057:1,2019-11-09T04:12:00Z,28.4460,-96.3961,1026.5,11111222 
TCOON,ioos:station:TCOON:057:1,2019-11-09T05:12:00Z,28.4460,-96.3961,1026.4,11111222 
TCOON,ioos:station:TCOON:057:1,2019-11-09T06:12:00Z,28.4460,-96.3961,1026.0,11111222 
TCOON,ioos:station:TCOON:057:1,2019-11-09T07:12:00Z,28.4460,-96.3961,1025.7,11111222 
TCOON,ioos:station:TCOON:057:1,2019-11-09T08:12:00Z,28.4460,-96.3961,1025.2,11111222 
TCOON,ioos:station:TCOON:057:1,2019-11-09T09:12:00Z,28.4460,-96.3961,1025.2,11111222 
TCOON,ioos:station:TCOON:057:1,2019-11-09T10:12:00Z,28.4460,-96.3961,1025.2,11111222 
TCOON,ioos:station:TCOON:057:1,2019-11-09T11:12:00Z,28.4460,-96.3961,1025.1,11111222 
TCOON,ioos:station:TCOON:057:1,2019-11-09T12:12:00Z,28.4460,-96.3961,1025.0,11111222 
TCOON,ioos:station:TCOON:057:1,2019-11-09T13:12:00Z,28.4460,-96.3961,1025.3,11111222 
TCOON,ioos:station:TCOON:057:1,2019-11-09T14:12:00Z,28.4460,-96.3961,1025.8,11111222 
TCOON,ioos:station:TCOON:057:1,2019-11-09T15:12:00Z,28.4460,-96.3961,1026.2,11111222 
TCOON,ioos:station:TCOON:057:1,2019-11-09T16:12:00Z,28.4460,-96.3961,1026.5,11111222 
TCOON,ioos:station:TCOON:057:1,2019-11-09T17:12:00Z,28.4460,-96.3961,1025.9,11111222 
TCOON,ioos:station:TCOON:057:1,2019-11-09T18:12:00Z,28.4460,-96.3961,1024.9,11111222 
TCOON,ioos:station:TCOON:057:1,2019-11-09T19:12:00Z,28.4460,-96.3961,1023.7,11111222 
TCOON,ioos:station:TCOON:057:1,2019-11-09T20:12:00Z,28.4460,-96.3961,1023.2,11111222 
TCOON,ioos:station:TCOON:057:1,2019-11-09T21:12:00Z,28.4460,-96.3961,1022.7,11111222 
TCOON,ioos:station:TCOON:057:1,2019-11-09T22:12:00Z,28.4460,-96.3961,1022.2,11111222 
TCOON,ioos:station:TCOON:057:1,2019-11-09T23:12:00Z,28.4460,-96.3961,1022.1,11111222 
TCOON,ioos:station:TCOON:057:1,2019-11-10T00:12:00Z,28.4460,-96.3961,1022.1,11111222 
TCOON,ioos:station:TCOON:057:1,2019-11-10T01:12:00Z,28.4460,-96.3961,1022.5,11111222 
TCOON,ioos:station:TCOON:057:1,2019-11-10T02:12:00Z,28.4460,-96.3961,1022.7,11111222 
TCOON,ioos:station:TCOON:057:1,2019-11-10T03:12:00Z,28.4460,-96.3961,1022.6,11111222 
TCOON,ioos:station:TCOON:057:1,2019-11-10T04:12:00Z,28.4460,-96.3961,1022.7,11111222 
TCOON,ioos:station:TCOON:057:1,2019-11-10T05:12:00Z,28.4460,-96.3961,1022.4,11111222 
TCOON,ioos:station:TCOON:057:1,2019-11-10T06:12:00Z,28.4460,-96.3961,1022.2,11111222 
TCOON,ioos:station:TCOON:057:1,2019-11-10T07:12:00Z,28.4460,-96.3961,1021.6,11111222 
TCOON,ioos:station:TCOON:057:1,2019-11-10T08:12:00Z,28.4460,-96.3961,1021.2,11111222 
TCOON,ioos:station:TCOON:057:1,2019-11-10T09:12:00Z,28.4460,-96.3961,1020.7,11111222 
TCOON,ioos:station:TCOON:057:1,2019-11-10T10:12:00Z,28.4460,-96.3961,1020.5,11111222 
TCOON,ioos:station:TCOON:057:1,2019-11-10T11:12:00Z,28.4460,-96.3961,1020.5,11111222 
TCOON,ioos:station:TCOON:057:1,2019-11-10T12:12:00Z,28.4460,-96.3961,1020.7,11111222 
TCOON,ioos:station:TCOON:057:1,2019-11-10T13:12:00Z,28.4460,-96.3961,1020.9,11111222 
TCOON,ioos:station:TCOON:057:1,2019-11-10T14:12:00Z,28.4460,-96.3961,1021.3,11111222 
TCOON,ioos:station:TCOON:057:1,2019-11-10T15:12:00Z,28.4460,-96.3961,1021.6,11111222 
TCOON,ioos:station:TCOON:057:1,2019-11-10T16:12:00Z,28.4460,-96.3961,1021.5,11111222 
TCOON,ioos:station:TCOON:057:1,2019-11-10T17:12:00Z,28.4460,-96.3961,1020.9,11111222 
TCOON,ioos:station:TCOON:057:1,2019-11-10T18:12:00Z,28.4460,-96.3961,1019.7,11111222 
TCOON,ioos:station:TCOON:057:1,2019-11-10T19:12:00Z,28.4460,-96.3961,1018.5,11111222 
TCOON,ioos:station:TCOON:057:1,2019-11-10T20:12:00Z,28.4460,-96.3961,1017.6,11111222 
TCOON,ioos:station:TCOON:057:1,2019-11-10T21:12:00Z,28.4460,-96.3961,1016.9,11111222 
TCOON,ioos:station:TCOON:057:1,2019-11-10T22:12:00Z,28.4460,-96.3961,1016.6,11111222 
TCOON,ioos:station:TCOON:057:1,2019-11-10T23:12:00Z,28.4460,-96.3961,1016.2,11111222 
TCOON,ioos:station:TCOON:057:1,2019-11-11T00:12:00Z,28.4460,-96.3961,1016.0,11111222 
TCOON,ioos:station:TCOON:057:1,2019-11-11T01:24:00Z,28.4460,-96.3961,1016.3,11111222 
TCOON,ioos:station:TCOON:057:1,2019-11-11T02:12:00Z,28.4460,-96.3961,1016.2,11111222 
TCOON,ioos:station:TCOON:057:1,2019-11-11T03:12:00Z,28.4460,-96.3961,1015.9,11111222 
TCOON,ioos:station:TCOON:057:1,2019-11-11T04:12:00Z,28.4460,-96.3961,1015.8,11111222 
TCOON,ioos:station:TCOON:057:1,2019-11-11T05:12:00Z,28.4460,-96.3961,1015.7,11111222 
TCOON,ioos:station:TCOON:057:1,2019-11-11T06:12:00Z,28.4460,-96.3961,1015.4,11111222 
TCOON,ioos:station:TCOON:057:1,2019-11-11T07:12:00Z,28.4460,-96.3961,1015.0,11111222 
TCOON,ioos:station:TCOON:057:1,2019-11-11T08:12:00Z,28.4460,-96.3961,1014.2,11111222 
TCOON,ioos:station:TCOON:057:1,2019-11-11T09:12:00Z,28.4460,-96.3961,1014.2,11111222 
TCOON,ioos:station:TCOON:057:1,2019-11-11T10:12:00Z,28.4460,-96.3961,1013.7,11111222 
TCOON,ioos:station:TCOON:057:1,2019-11-11T11:12:00Z,28.4460,-96.3961,1013.7,11111222 
TCOON,ioos:station:TCOON:057:1,2019-11-11T12:12:00Z,28.4460,-96.3961,1014.2,11111222 
TCOON,ioos:station:TCOON:057:1,2019-11-11T13:12:00Z,28.4460,-96.3961,1014.4,11111222 
TCOON,ioos:station:TCOON:057:1,2019-11-11T14:12:00Z,28.4460,-96.3961,1014.9,11111222 
TCOON,ioos:station:TCOON:057:1,2019-11-11T15:12:00Z,28.4460,-96.3961,1015.5,11111222 
TCOON,ioos:station:TCOON:057:1,2019-11-11T16:12:00Z,28.4460,-96.3961,1015.5,11111222 
TCOON,ioos:station:TCOON:057:1,2019-11-11T17:12:00Z,28.4460,-96.3961,1015.0,11111222 
TCOON,ioos:station:TCOON:057:1,2019-11-11T18:12:00Z,28.4460,-96.3961,1014.1,11111222 
TCOON,ioos:station:TCOON:057:1,2019-11-11T19:12:00Z,28.4460,-96.3961,1013.6,11111222 
TCOON,ioos:station:TCOON:057:1,2019-11-11T20:12:00Z,28.4460,-96.3961,1013.9,11111222 
TCOON,ioos:station:TCOON:057:1,2019-11-11T21:12:00Z,28.4460,-96.3961,1014.5,11111222 
TCOON,ioos:station:TCOON:057:1,2019-11-11T22:12:00Z,28.4460,-96.3961,1014.6,11111222 
TCOON,ioos:station:TCOON:057:1,2019-11-11T23:12:00Z,28.4460,-96.3961,1016.8,11111222 
TCOON,ioos:station:TCOON:057:1,2019-11-12T00:12:00Z,28.4460,-96.3961,1020.2,11111222 
TCOON,ioos:station:TCOON:057:1,2019-11-12T01:12:00Z,28.4460,-96.3961,1021.6,11111222 
TCOON,ioos:station:TCOON:057:1,2019-11-12T02:12:00Z,28.4460,-96.3961,1023.1,11111222 
TCOON,ioos:station:TCOON:057:1,2019-11-12T03:12:00Z,28.4460,-96.3961,1023.9,11111222 
TCOON,ioos:station:TCOON:057:1,2019-11-12T04:12:00Z,28.4460,-96.3961,1025.5,11111222 
TCOON,ioos:station:TCOON:057:1,2019-11-12T05:12:00Z,28.4460,-96.3961,1025.8,11111222 
TCOON,ioos:station:TCOON:057:1,2019-11-12T06:12:00Z,28.4460,-96.3961,1026.1,11111222 
TCOON,ioos:station:TCOON:057:1,2019-11-12T07:12:00Z,28.4460,-96.3961,1026.6,11111222 
TCOON,ioos:station:TCOON:057:1,2019-11-12T08:12:00Z,28.4460,-96.3961,1027.9,11111222 
TCOON,ioos:station:TCOON:057:1,2019-11-12T09:12:00Z,28.4460,-96.3961,1027.8,11111222 
TCOON,ioos:station:TCOON:057:1,2019-11-12T10:12:00Z,28.4460,-96.3961,1028.5,11111222 
TCOON,ioos:station:TCOON:057:1,2019-11-12T11:12:00Z,28.4460,-96.3961,1030.3,11111222 
TCOON,ioos:station:TCOON:057:1,2019-11-12T12:12:00Z,28.4460,-96.3961,1030.2,11111222 
TCOON,ioos:station:TCOON:057:1,2019-11-12T13:12:00Z,28.4460,-96.3961,1030.7,11111222 
TCOON,ioos:station:TCOON:057:1,2019-11-12T14:12:00Z,28.4460,-96.3961,1031.9,11111222 
TCOON,ioos:station:TCOON:057:1,2019-11-12T15:12:00Z,28.4460,-96.3961,1032.6,11111222 
TCOON,ioos:station:TCOON:057:1,2019-11-12T16:12:00Z,28.4460,-96.3961,1032.7,11111222 
TCOON,ioos:station:TCOON:057:1,2019-11-12T17:18:00Z,28.4460,-96.3961,1032.7,11111222 
TCOON,ioos:station:TCOON:057:1,2019-11-12T18:12:00Z,28.4460,-96.3961,1032.5,11111222 
TCOON,ioos:station:TCOON:057:1,2019-11-12T19:12:00Z,28.4460,-96.3961,1031.5,11111222 
TCOON,ioos:station:TCOON:057:1,2019-11-12T20:18:00Z,28.4460,-96.3961,1030.3,11111222 
TCOON,ioos:station:TCOON:057:1,2019-11-12T21:18:00Z,28.4460,-96.3961,1029.8,11111222 
TCOON,ioos:station:TCOON:057:1,2019-11-12T22:12:00Z,28.4460,-96.3961,1029.5,11111222 